Weather observations for the past three days for
Downtown Holman Field
| Date | Time (cdt) | Wind (kph) | Vis. (km) | Weather | Sky Cond. | Temperature (ºC) | Relative Humidity | Wind Chill (°C) | Heat Index (°C) | Pressure | Precipitation (cm) | ||||||
|---|---|---|---|---|---|---|---|---|---|---|---|---|---|---|---|---|---|
| Air | Dwpt | 6 hour | altimeter (cm) | sea level (mb) | 1 hr | 3 hr | 6 hr | ||||||||||
| Max. | Min. | ||||||||||||||||
| 06 | 10:53 | SE 17 | 16.09 | Overcast | OVC019 | 24.4 | 18.9 | 72% | 25 | 76.48 | 1019.0 | ||||||
| 06 | 09:53 | SE 15 | 16.09 | Mostly Cloudy | BKN013 | 23.3 | 18.9 | 76% | 76.48 | 1019.1 | |||||||
| 06 | 08:53 | SE 15 | 16.09 | Overcast | OVC009 | 21.7 | 19.4 | 87% | 76.48 | 1019.0 | |||||||
| 06 | 07:53 | SE 11 | 16.09 | Mostly Cloudy | BKN012 | 21.1 | 19.4 | 90% | 76.45 | 1018.7 | |||||||
| 06 | 06:53 | E 7 | 16.09 | Fair | CLR | 20.6 | 18.9 | 23.3 | 20.6 | 90% | 76.43 | 1018.3 | |||||
| 06 | 05:53 | SE 6 | 16.09 | Fair | CLR | 20.6 | 19.4 | 93% | 76.38 | 1017.7 | |||||||
| 06 | 04:53 | SE 9 | 16.09 | Mostly Cloudy | BKN110 | 21.7 | 19.4 | 87% | 76.35 | 1017.1 | |||||||
| 06 | 03:53 | SE 17 | 16.09 | Overcast | OVC110 | 21.7 | 20 | 90% | 76.3 | 1016.6 | |||||||
| 06 | 02:53 | SE 13 | 16.09 | Fair | CLR | 22.2 | 19.4 | 84% | 76.33 | 1016.8 | |||||||
| 06 | 01:53 | SE 9 | 16.09 | Fair | CLR | 22.2 | 19.4 | 84% | 76.35 | 1017.1 | |||||||
| 06 | 00:53 | SE 11 | 16.09 | A Few Clouds | FEW120 | 23.3 | 20 | 28.3 | 22.8 | 82% | 76.35 | 1017.3 | |||||
| 05 | 23:53 | Calm | 16.09 | Partly Cloudy | SCT120 | 23.3 | 20 | 82% | 76.35 | 1017.4 | |||||||
| 05 | 22:53 | S 6 | 16.09 | Overcast | OVC032 | 23.3 | 19.4 | 79% | 76.38 | 1017.6 | |||||||
| 05 | 21:53 | Calm | 16.09 | Fair | CLR | 24.4 | 19.4 | 74% | 25 | 76.38 | 1017.8 | ||||||
| 05 | 20:53 | E 6 | 16.09 | Fair | CLR | 24.4 | 19.4 | 74% | 25 | 76.28 | 1016.4 | ||||||
| 05 | 19:53 | SE 17 | 16.09 | Fair | CLR | 26.1 | 19.4 | 67% | 27 | 76.2 | 1015.2 | ||||||
| 05 | 18:53 | SE 19 | 16.09 | Fair | CLR | 28.3 | 18.9 | 30.6 | 25.6 | 57% | 30 | 76.15 | 1014.7 | ||||
| 05 | 17:53 | E 17 | 16.09 | Fair | CLR | 30 | 18.9 | 51% | 31 | 76.12 | 1014.2 | ||||||
| 05 | 16:53 | E 15 | 16.09 | Fair | CLR | 30.6 | 19.4 | 51% | 32 | 76.12 | 1014.2 | ||||||
| 05 | 15:53 | E 9 | 16.09 | Fair | CLR | 29.4 | 18.9 | 53% | 31 | 76.2 | 1015.4 | ||||||
| 05 | 12:53 | Vrbl 7 | 16.09 | Partly Cloudy | SCT021 | 26.1 | 20 | 26.1 | 20 | 69% | 27 | 76.33 | 1017.0 | ||||
| 05 | 11:53 | SE 7 | 16.09 | Overcast | OVC017 | 25.6 | 20 | 71% | 27 | 76.35 | 1017.4 | ||||||
| 05 | 10:53 | Calm | 16.09 | Overcast | OVC011 | 23.3 | 20 | 82% | 76.38 | 1017.8 | |||||||
| 05 | 09:53 | NE 7 | 16.09 | Overcast | OVC008 | 22.2 | 20 | 87% | 76.35 | 1017.3 | |||||||
| 05 | 08:53 | NE 7 | 9.66 | Fog/Mist | OVC007 | 21.1 | 19.4 | 90% | 76.35 | 1017.3 | |||||||
| 05 | 07:53 | E 13 | 9.66 | Fog/Mist | OVC007 | 20.6 | 19.4 | 93% | 76.23 | 1015.8 | |||||||
| 05 | 06:53 | NE 9 | 4.02 | Fog/Mist | OVC005 | 20.6 | 19.4 | 20.6 | 19.4 | 93% | 76.25 | 1015.8 | |||||
| 05 | 05:53 | N 6 | 9.66 | Fog/Mist | OVC005 | 20 | 19.4 | 96% | 76.2 | 1015.3 | |||||||
| 05 | 04:53 | NE 11 | 9.66 | Fog/Mist | OVC005 | 20 | 18.9 | 93% | 76.15 | 1014.6 | |||||||
| 05 | 03:53 | NE 13 | 16.09 | Overcast | OVC006 | 20 | 18.9 | 93% | 76.17 | 1015.0 | |||||||
| 05 | 02:53 | NE 11 | 16.09 | Overcast | OVC008 | 20 | 18.3 | 90% | 76.2 | 1015.3 | |||||||
| 05 | 01:53 | NE 13 | 16.09 | Overcast | OVC009 | 20 | 18.3 | 90% | 76.2 | 1015.4 | |||||||
| 05 | 00:53 | N 6 | 16.09 | Fair | CLR | 20 | 18.3 | 28.9 | 20 | 90% | 76.17 | 1015.0 | |||||
| 04 | 23:53 | N 7 | 16.09 | Fair | CLR | 21.1 | 18.3 | 84% | 76.15 | 1014.7 | |||||||
| 04 | 22:53 | NE 11 | 16.09 | Fair | CLR | 22.2 | 18.9 | 82% | 76.15 | 1014.5 | |||||||
| 04 | 21:53 | NE 7 | 16.09 | Fair | CLR | 23.3 | 18.9 | 76% | 76.12 | 1014.3 | |||||||
| 04 | 20:53 | N 13 | 16.09 | Fair | CLR | 25.6 | 19.4 | 69% | 27 | 76.07 | 1013.6 | ||||||
| 04 | 19:53 | N 9 | 16.09 | Fair | CLR | 27.2 | 19.4 | 62% | 29 | 76.02 | 1012.9 | ||||||
| 04 | 18:53 | N 15 | 16.09 | Fair | CLR | 28.9 | 20 | 30.6 | 27.2 | 59% | 31 | 76 | 1012.5 | ||||
| 04 | 17:53 | N 17 | 16.09 | Fair | CLR | 30 | 20.6 | 57% | 32 | 75.97 | 1012.0 | ||||||
| 04 | 16:53 | NE 13 | 16.09 | Fair | CLR | 30 | 21.7 | 61% | 33 | 75.92 | 1011.5 | ||||||
| 04 | 15:53 | N 11 | 16.09 | Fair | CLR | 29.4 | 21.7 | 63% | 32 | 75.95 | 1011.6 | ||||||
| 04 | 14:53 | Vrbl 9 | 16.09 | Fair | CLR | 28.9 | 21.7 | 65% | 32 | 75.95 | 1011.8 | ||||||
| 04 | 13:53 | N 19 | 16.09 | Overcast | OVC021 | 28.3 | 21.7 | 67% | 31 | 75.95 | 1011.9 | ||||||
| 04 | 12:53 | N 19 | 16.09 | Overcast | OVC017 | 27.2 | 21.7 | 28.9 | 22.2 | 72% | 29 | 75.95 | 1011.8 | ||||
| 04 | 11:53 | N 22 | 16.09 | Mostly Cloudy | BKN015 | 27.2 | 22.8 | 77% | 30 | 75.92 | 1011.6 | ||||||
| 04 | 10:53 | N 15 | 16.09 | Fair | CLR | 28.3 | 22.8 | 72% | 32 | 75.9 | 1011.0 | ||||||
| 04 | 09:53 | SE 6 | 16.09 | Fair | CLR | 27.2 | 22.8 | 77% | 30 | 75.82 | 1010.2 | ||||||
| 04 | 08:53 | Calm | 16.09 | A Few Clouds | FEW006 | 25 | 22.2 | 85% | 26 | 75.84 | 1010.5 | ||||||
| 04 | 07:53 | Calm | 12.87 | Fair | CLR | 22.8 | 22.2 | 96% | 75.82 | 1010.1 | |||||||
| 04 | 06:53 | Calm | 14.48 | Fair | CLR | 22.2 | 21.7 | 24.4 | 20.6 | 97% | 75.77 | 1009.4 | |||||
| 04 | 05:53 | Calm | 14.48 | Fair | CLR | 21.7 | 21.7 | 100% | 75.74 | 1009.1 | |||||||
| 04 | 04:53 | N 7 | 16.09 | Fair | CLR | 23.3 | 22.8 | 97% | 75.74 | 1009.2 | |||||||
| 04 | 03:53 | Calm | 12.87 | Fair | CLR | 22.8 | 22.2 | 96% | 75.72 | 1008.7 | |||||||
| 04 | 02:53 | S 6 | 16.09 | Fair | CLR | 23.9 | 22.2 | 90% | 23 | 75.69 | 1008.5 | ||||||
| 04 | 01:53 | SE 6 | 16.09 | Mostly Cloudy | BKN120 | 24.4 | 22.2 | 88% | 25 | 75.72 | 1008.7 | ||||||
| 04 | 00:53 | S 9 | 16.09 | Mostly Cloudy | BKN120 | 24.4 | 22.2 | 29.4 | 24.4 | 88% | 25 | 75.72 | 1008.8 | ||||
| 03 | 23:53 | S 13 | 16.09 | A Few Clouds | FEW120 | 25 | 22.2 | 85% | 26 | 75.69 | 1008.4 | ||||||
| 03 | 22:53 | S 15 | 16.09 | Fair | CLR | 25.6 | 22.2 | 82% | 27 | 75.69 | 1008.5 | ||||||
| 03 | 21:53 | SE 13 | 16.09 | Fair | CLR | 26.1 | 21.7 | 77% | 28 | 75.72 | 1008.7 | ||||||
| 03 | 20:53 | SE 9 | 16.09 | Mostly Cloudy | BKN043 BKN049 | 27.2 | 21.7 | 72% | 29 | 75.72 | 1008.6 | ||||||
| 03 | 19:53 | SE 15 | 16.09 | Fair | CLR | 27.8 | 21.1 | 67% | 30 | 75.67 | 1007.9 | ||||||
| 03 | 18:53 | SE 20 G 33 | 16.09 | Fair | CLR | 29.4 | 20.6 | 31.7 | 25.6 | 59% | 32 | 75.67 | 1007.9 | 0.05 | |||
| 03 | 17:53 | SE 17 | 16.09 | Fair | CLR | 30.6 | 20.6 | 55% | 33 | 75.62 | 1007.2 | ||||||
| 03 | 16:53 | SE 20 | 16.09 | Fair | CLR | 30 | 20 | 55% | 32 | 75.62 | 1007.4 | 0.03 | |||||
| 03 | 15:53 | S 19 G 41 | 16.09 | A Few Clouds | FEW060 | 30.6 | 19.4 | 51% | 32 | 75.69 | 1008.4 | 0.03 | |||||
| 03 | 14:53 | S 17 | 16.09 | Overcast | OVC110 | 30 | 21.7 | 61% | 33 | 75.72 | 1008.6 | 0.03 | |||||
| 03 | 13:53 | E 17 | 16.09 | Thunderstorm in Vicinity Light Rain | FEW035 SCT065 SCT075 | 26.7 | 20.6 | 69% | 28 | 75.77 | 1009.2 | ||||||
| 03 | 12:53 | S 11 | 16.09 | Fair | CLR | 26.7 | 20 | 28.3 | 23.3 | 67% | 28 | 75.77 | 1009.4 | ||||
| 03 | 11:53 | SE 17 | 16.09 | Mostly Cloudy | BKN085 | 27.2 | 19.4 | 62% | 29 | 75.82 | 1010.0 | ||||||
| Date | Time (cdt) | Wind (kph) | Vis. (km) | Weather | Sky Cond. | Air | Dwpt | Max. | Min. | Relative Humidity | Wind Chill (°C) | Heat Index (°C) | altimeter (cm) | sea level (mb) | 1 hr | 3 hr | 6 hr |
| 6 hour | |||||||||||||||||
| Temperature (ºC) | Pressure | Precipitation (cm) | |||||||||||||||